Flag for U.S.A. Weather past 2 weeks in Rochester, New York, U.S.A.

Now
65 °F

Passing clouds.


Feels Like: 65 °F
Forecast: 67 / 80 °F
Wind: 3 mph from Southwest

Location: Greater Rochester International Airport

Current Time: Aug 31, 2015 at 1:40:25 AM

Latest Report: Aug 31, 2015 at 12:54 AM


Visibility: 9 mi

Pressure: 30.03 "Hg

Humidity: 91%

Dew point: 62 °F

Location of RochesterLocation

Historic Weather in Rochester — Graph

°F

Rochester temperature yesterday

Maximum temperature yesterday: 81 °F (at 2:54 PM)
Minimum temperature yesterday: 65 °F (at 11:54 PM)
Average temperature yesterday: 72 °F

Past Weeks' High & Low Weather Summary

 TemperatureHumidityPressure
High88 °F (Aug 17, 2:54 PM)100% (Aug 20, 3:54 PM)30.24 "Hg (Aug 20, 3:54 PM)
Low51 °F (Aug 28, 6:54 AM)37% (Aug 24, 4:54 PM)29.78 "Hg (Aug 20, 1:54 PM)
Average70 °F72%30.03 "Hg
* Reported Aug 15 11:54 PM — Aug 30 11:54 PM, Rochester, Weather by CustomWeather, © 2015

Note: Actual official high and low records may vary slightly from our data, if they occured in-between our weather recording intervals... More about our weather records

Advertising

Rochester weather history for previous 24 hours

 ConditionsComfort  
Time TempWeatherWind HumidityBarometerVisibility
11:54 PM
Sun, Aug 30
65 °FPassing clouds.3 mph91%30.04 "Hg10 mi
10:54 PM67 °FPassing clouds.No wind85%30.04 "Hg10 mi
9:54 PM67 °FPassing clouds.3 mph85%30.05 "Hg10 mi
8:54 PM71 °FPassing clouds.No wind68%30.05 "Hg10 mi
7:54 PM73 °FScattered clouds.5 mph66%30.03 "Hg10 mi
6:54 PM76 °FScattered clouds.7 mph62%30.02 "Hg10 mi
5:54 PM80 °FScattered clouds.No wind58%30.02 "Hg10 mi
4:54 PM79 °FScattered clouds.3 mph58%30.03 "Hg10 mi
3:54 PM78 °FPartly sunny.12 mph60%30.04 "Hg10 mi
2:54 PM81 °FScattered clouds.8 mph51%30.06 "Hg10 mi
1:54 PM79 °FScattered clouds.3 mph58%30.07 "Hg10 mi
12:54 PM78 °FPartly sunny.5 mph54%30.08 "Hg10 mi
11:54 AM76 °FPartly sunny.6 mph58%30.10 "Hg10 mi
10:54 AM73 °FPartly sunny.6 mph69%30.09 "Hg10 mi
9:54 AM71 °FPartly sunny.5 mph76%30.10 "Hg10 mi
8:54 AM68 °FPartly sunny.3 mph84%30.09 "Hg10 mi
7:54 AM67 °FOvercast.3 mph85%30.09 "Hg10 mi
6:54 AM67 °FMostly cloudy.3 mph85%30.08 "Hg10 mi
5:54 AM67 °FOvercast.6 mph87%30.06 "Hg10 mi
4:54 AM67 °FOvercast.3 mph85%30.06 "Hg10 mi
3:54 AM68 °FOvercast.No wind82%30.05 "Hg10 mi
2:54 AM68 °FOvercast.3 mph84%30.06 "Hg10 mi
1:54 AM69 °FOvercast.No wind79%30.08 "Hg10 mi
Weather by CustomWeather, © 2015

See weather overviewHow to use our weather pages